Los Angeles, CA

9:07 PM PDT on August 26, 2016 (GMT -0700)
Los Angeles International

Weather History for KLAX - May, 2013

Change the Weather History Date:

Saturday, May 18, 2013

  Actual Average Record
Temperature  
Mean Temperature 66 °F 63 °F  
Max Temperature 72 °F 68 °F 87 °F (1955)
Min Temperature 60 °F 58 °F 48 °F (1945)
Degree Days  
Heating Degree Days 0 3  
Month to date heating degree days 5 59  
Since 1 July heating degree days 1135 1367  
Cooling Degree Days 1 0  
Month to date cooling degree days 35 4  
Year to date cooling degree days 55 30  
Growing Degree Days 16 (Base 50)    
Moisture  
Dew Point 55 °F    
Average Humidity 71    
Maximum Humidity 84    
Minimum Humidity 57    
Precipitation  
Precipitation 0.00 in 0.00 in 0.20 in (1949)
Month to date precipitation 0.39 0.15  
Year to date precipitation 2.61 8.66  
Since 1 July precipitation 6.89  
Sea Level Pressure  
Sea Level Pressure 30.01 in    
Wind  
Wind Speed 6 mph (WSW)    
Max Wind Speed 16 mph    
Max Gust Speed 23 mph    
Visibility 10 miles    
Events      
T = Trace of Precipitation, MM = Missing Value Source: NWS Daily Summary

Daily Weather History Graph

Daily Weather History Graph

Search for Another Location

Airport or City:

Trip Planner

Search our weather history database for the weather conditions in past years. The results will help you decide how hot, cold, wet, or windy it might be!

Date:

Astronomy

May. 18, 2013 Rise Set
Actual Time 5:49 AM PDT 7:50 PM PDT
Civil Twilight 5:22 AM PDT 8:18 PM PDT
Nautical Twilight 4:48 AM PDT 8:52 PM PDT
Astronomical Twilight 4:12 AM PDT 9:28 PM PDT
Moon 1:16 PM PDT (5/18) 1:25 AM PDT (5/18)
Length of Visible Light 14h 56m
Length of Day
14h 00m
First Quarter, 56% of the Moon is Illuminated
May 18
First Quarter
May 24
Full
May 31
Last Quarter
Jun 8
New
Jun 16
First Quarter

Hourly Weather History & Observations

Time (PDT) Temp. Dew Point Humidity Pressure Visibility Wind Dir Wind Speed Gust Speed Precip Events Conditions
12:53 AM 62.1 °F 54.0 °F 75% 29.99 in 10.0 mi Calm Calm - N/A   Partly Cloudy
1:53 AM 62.1 °F 54.0 °F 75% 29.99 in 10.0 mi Calm Calm - N/A   Clear
2:53 AM 61.0 °F 55.0 °F 81% 29.99 in 10.0 mi Calm Calm - N/A   Scattered Clouds
3:53 AM 61.0 °F 54.0 °F 78% 29.99 in 10.0 mi Calm Calm - N/A   Scattered Clouds
4:53 AM 60.1 °F 54.0 °F 80% 30.00 in 10.0 mi Calm Calm - N/A   Scattered Clouds
5:53 AM 61.0 °F 55.0 °F 81% 30.01 in 10.0 mi NNE 4.6 mph - N/A   Scattered Clouds
6:23 AM 60.8 °F 55.4 °F 82% 30.02 in 10.0 mi Variable 3.5 mph - N/A   Mostly Cloudy
6:53 AM 62.1 °F 55.9 °F 80% 30.02 in 10.0 mi East 3.5 mph - N/A   Mostly Cloudy
7:16 AM 62.6 °F 55.4 °F 77% 30.03 in 10.0 mi Calm Calm - N/A   Scattered Clouds
7:53 AM 63.0 °F 55.9 °F 78% 30.04 in 10.0 mi Calm Calm - N/A   Scattered Clouds
8:08 AM 64.4 °F 55.4 °F 73% 30.04 in 10.0 mi Calm Calm - N/A   Mostly Cloudy
8:53 AM 66.0 °F 55.0 °F 68% 30.04 in 10.0 mi Calm Calm - N/A   Mostly Cloudy
9:53 AM 69.1 °F 54.0 °F 58% 30.03 in 10.0 mi SSW 8.1 mph - N/A   Mostly Cloudy
10:05 AM 68.0 °F 53.6 °F 60% 30.04 in 10.0 mi SSW 5.8 mph - N/A   Scattered Clouds
10:53 AM 70.0 °F 55.9 °F 61% 30.04 in 10.0 mi WSW 11.5 mph - N/A   Scattered Clouds
11:53 AM 71.1 °F 55.9 °F 59% 30.03 in 10.0 mi West 11.5 mph - N/A   Partly Cloudy
12:53 PM 71.1 °F 55.0 °F 57% 30.02 in 10.0 mi West 12.7 mph - N/A   Partly Cloudy
1:53 PM 70.0 °F 55.9 °F 61% 30.01 in 10.0 mi WSW 11.5 mph - N/A   Partly Cloudy
2:53 PM 71.1 °F 57.0 °F 61% 30.01 in 10.0 mi WSW 12.7 mph - N/A   Scattered Clouds
3:53 PM 69.1 °F 57.0 °F 65% 30.00 in 10.0 mi WSW 13.8 mph - N/A   Partly Cloudy
4:53 PM 66.9 °F 57.0 °F 70% 29.99 in 10.0 mi West 11.5 mph - N/A   Partly Cloudy
5:53 PM 66.9 °F 57.0 °F 70% 29.99 in 10.0 mi WSW 11.5 mph - N/A   Partly Cloudy
6:53 PM 64.9 °F 55.9 °F 73% 29.98 in 10.0 mi WSW 9.2 mph - N/A   Partly Cloudy
7:53 PM 64.0 °F 55.9 °F 75% 29.99 in 10.0 mi WSW 5.8 mph - N/A   Partly Cloudy
8:53 PM 63.0 °F 54.0 °F 72% 29.99 in 10.0 mi SW 5.8 mph - N/A   Clear
9:53 PM 63.0 °F 55.0 °F 75% 29.99 in 10.0 mi WSW 4.6 mph - N/A   Clear
10:53 PM 63.0 °F 55.9 °F 78% 29.99 in 10.0 mi Variable 4.6 mph - N/A   Clear
11:53 PM 63.0 °F 52.0 °F 67% 29.98 in 10.0 mi Variable 6.9 mph - N/A   Clear